QPF
0.00 0.00 0.00 0.00 0.00 0.00 0.00 0.00 0.00 0.00 0.00 0.00 0.00 0.00 0.00 0.00 0.00 0.00 0.00 0.00 0.00 0.00 0.00 0.00 0.00 0.00 0.00 0.00 0.00 0.00 0.00 0.00 0.00 0.00 0.00 0.00 0.00 0.00 0.00 0.00 0.00 0.00 0.00 0.00 0.00 0.00 0.00 0.00 0.00
0.00 0.00 0.00 0.00 0.00 0.00 0.00 0.00 0.00 0.00 0.00 0.00 0.00 0.00 0.00 0.00 0.00 0.00 0.00 0.00 0.00 0.00 0.00 0.00 0.00 0.00 0.00 0.00 0.00 0.00 0.00 0.00 0.00 0.00 0.00 0.00 0.00 0.00 0.00 0.00 0.00 0.00 0.00 0.00 0.00 0.00 0.00 0.00 0.00
0.00 0.00 0.00 0.00 0.00 0.00 0.00 0.00 0.00 0.00 0.00 0.00 0.00 0.00 0.00 0.00 0.00 0.00 0.00 0.00 0.00 0.00 0.00 0.00 0.00 0.00 0.00 0.00 0.00 0.00 0.00 0.00 0.00 0.00 0.00 0.00 0.00 0.00 0.00 0.00 0.00 0.00 0.00 0.00 0.00 0.00 0.00 0.00 0.00
0.00 0.00 0.00 0.00 0.00 0.00 0.00 0.00 0.00 0.00 0.00 0.00 0.00 0.00 0.00 0.00 0.00 0.00 0.00 0.00 0.00 0.00 0.00 0.00 0.00 0.00 0.00 0.00 0.00 0.00 0.00 0.00 0.00 0.00 0.00 0.00 0.00 0.00 0.00 0.00 0.00 0.00 0.00 0.00 0.00 0.00 0.00 0.00 0.00
0.00 0.00 0.00 0.00 0.00 0.00 0.00 0.00 0.00 0.00 0.00 0.00 0.00 0.00 0.00 0.00 0.00 0.00 0.00 0.00 0.00 0.00 0.00 0.00 0.00 0.00 0.00 0.00 0.00 0.00 0.00 0.00 0.00 0.00 0.00 0.00 0.00 0.00 0.00 0.00 0.00 0.00 0.00 0.00 0.00 0.00 0.00 0.00 0.00
0.00 0.00 0.00 0.00 0.00 0.00 0.00 0.00 0.00 0.00 0.00 0.00 0.00 0.00 0.00 0.00 0.00 0.00 0.00 0.00 0.00 0.00 0.00 0.00 0.00 0.00 0.00 0.00 0.00 0.00 0.00 0.00 0.00 0.00 0.00 0.00 0.00 0.00 0.00 0.00 0.00 0.00 0.00 0.00 0.00 0.00 0.00 0.00 0.00
0.00 0.00 0.00 0.00 0.00 0.00 0.00 0.00 0.00 0.00 0.00 0.00 0.00 0.00 0.00 0.00 0.00 0.00 0.00 0.00 0.00 0.00 0.00 0.00 0.00 0.00 0.00 0.00 0.00 0.00 0.00 0.00 0.00 0.00 0.00 0.00 0.00 0.00 0.00 0.00 0.00 0.00 0.00 0.00 0.00 0.00 0.00 0.00 0.00
0.00 0.00 0.00 0.00 0.00 0.00 0.00 0.00 0.00 0.00 0.00 0.00 0.00 0.00 0.00 0.00 0.00 0.00 0.00 0.00 0.00 0.00 0.00 0.00 0.00 0.00 0.00 0.00 0.00 0.00 0.00 0.00 0.00 0.00 0.00 0.00 0.00 0.00 0.00 0.00 0.00 0.00 0.00 0.00 0.00 0.00 0.00 0.00 0.00
0.00 0.00 0.00 0.00 0.00 0.00 0.00 0.00 0.00 0.00 0.00 0.00 0.00 0.00 0.00 0.00 0.00 0.00 0.00 0.00 0.00 0.00 0.00 0.00 0.00 0.00 0.00 0.00 0.00 0.00 0.00 0.00 0.00 0.00 0.00 0.00 0.00 0.00 0.00 0.00 0.00 0.00 0.00 0.00 0.00 0.00 0.00 0.00 0.00
0.00 0.00 0.00 0.00 0.00 0.00 0.00 0.00 0.00 0.00 0.00 0.00 0.00 0.00 0.00 0.00 0.00 0.00 0.00 0.00 0.00 0.00 0.00 0.00 0.00 0.00 0.00 0.00 0.00 0.00 0.00 0.00 0.00 0.00 0.00 0.00 0.00 0.00 0.00 0.00 0.00 0.00 0.00 0.00 0.00 0.00 0.00 0.00 0.00
0.00 0.00 0.00 0.00 0.00 0.00 0.00 0.00 0.00 0.00 0.00 0.00 0.00 0.00 0.00 0.00 0.00 0.00 0.00 0.00 0.00 0.00 0.00 0.00 0.00 0.00 0.00 0.00 0.00 0.00 0.00 0.00 0.00 0.00 0.00 0.00 0.00 0.00 0.00 0.00 0.00 0.00 0.00 0.00 0.00 0.00 0.00 0.00 0.00
0.00 0.00 0.00 0.00 0.00 0.00 0.00 0.00 0.00 0.00 0.00 0.00 0.00 0.00 0.00 0.00 0.00 0.00 0.00 0.00 0.00 0.00 0.00 0.00 0.00 0.00 0.00 0.00 0.00 0.00 0.00 0.00 0.00 0.00 0.00 0.00 0.00 0.00 0.00 0.00 0.00 0.00 0.00 0.00 0.00 0.00 0.00 0.00 0.00
0.00 0.00 0.00 0.00 0.00 0.00 0.00 0.00 0.00 0.00 0.00 0.00 0.00 0.00 0.00 0.00 0.00 0.00 0.00 0.00 0.00 0.00 0.00 0.00 0.00 0.00 0.00 0.00 0.00 0.00 0.00 0.00 0.00 0.00 0.00 0.00 0.00 0.00 0.00 0.00 0.00 0.00 0.00 0.00 0.00 0.00 0.00 0.00 0.00
0.00 0.00 0.00 0.00 0.00 0.00 0.00 0.00 0.00 0.00 0.00 0.00 0.00 0.00 0.00 0.00 0.00 0.00 0.00 0.00 0.00 0.00 0.00 0.00 0.00 0.00 0.00 0.00 0.00 0.00 0.00 0.00 0.00 0.00 0.00 0.00 0.00 0.00 0.00 0.00 0.00 0.00 0.00 0.00 0.00 0.00 0.00 0.00 0.00
0.00 0.00 0.00 0.00 0.00 0.00 0.00 0.00 0.00 0.00 0.00 0.00 0.00 0.00 0.00 0.00 0.00 0.00 0.00 0.00 0.00 0.00 0.00 0.00 0.00 0.00 0.00 0.00 0.00 0.00 0.00 0.00 0.00 0.00 0.00 0.00 0.00 0.00 0.00 0.00 0.00 0.00 0.00 0.01 0.00 0.00 0.00 0.00 0.00
0.00 0.00 0.00 0.00 0.00 0.00 0.00 0.00 0.00 0.00 0.00 0.00 0.00 0.00 0.00 0.00 0.00 0.00 0.00 0.00 0.00 0.00 0.00 0.00 0.00 0.00 0.00 0.00 0.00 0.00 0.00 0.00 0.00 0.00 0.00 0.00 0.00 0.00 0.00 0.00 0.00 0.00 0.00 0.00 0.01 0.01 0.00 0.00 0.00
0.00 0.00 0.00 0.00 0.00 0.00 0.00 0.00 0.00 0.00 0.00 0.00 0.00 0.00 0.00 0.00 0.00 0.00 0.00 0.00 0.00 0.00 0.00 0.00 0.00 0.00 0.00 0.00 0.00 0.00 0.00 0.00 0.00 0.00 0.00 0.00 0.00 0.02 0.04 0.01 0.00 0.00 0.00 0.00 0.04 0.04 0.01 0.00 0.00
0.00 0.00 0.00 0.00 0.00 0.00 0.00 0.00 0.00 0.00 0.00 0.00 0.00 0.00 0.00 0.00 0.00 0.00 0.00 0.00 0.00 0.00 0.00 0.00 0.00 0.00 0.00 0.00 0.00 0.00 0.01 0.00 0.01 0.00 0.00 0.00 0.01 0.09 0.10 0.05 0.00 0.00 0.00 0.02 0.05 0.03 0.01 0.00 0.00
0.00 0.00 0.00 0.00 0.00 0.00 0.00 0.00 0.00 0.00 0.00 0.00 0.00 0.00 0.00 0.00 0.00 0.00 0.00 0.00 0.00 0.00 0.00 0.00 0.00 0.00 0.00 0.00 0.00 0.01 0.03 0.04 0.00 0.00 0.00 0.00 0.00 0.10 0.09 0.04 0.01 0.01 0.00 0.01 0.01 0.02 0.00 0.00 0.00
0.00 0.00 0.00 0.00 0.00 0.00 0.00 0.00 0.00 0.00 0.00 0.00 0.00 0.00 0.00 0.00 0.00 0.00 0.00 0.00 0.00 0.00 0.00 0.00 0.00 0.00 0.00 0.00 0.00 0.00 0.00 0.01 0.00 0.01 0.01 0.01 0.05 0.06 0.05 0.04 0.05 0.04 0.02 0.01 0.01 0.03 0.02 0.00 0.00
0.00 0.00 0.00 0.00 0.00 0.00 0.00 0.00 0.00 0.00 0.00 0.00 0.00 0.00 0.00 0.00 0.00 0.00 0.00 0.00 0.00 0.00 0.00 0.00 0.00 0.00 0.00 0.01 0.02 0.00 0.00 0.01 0.02 0.04 0.08 0.08 0.05 0.02 0.03 0.03 0.04 0.04 0.03 0.03 0.02 0.02 0.02 0.00 0.00
0.00 0.00 0.00 0.00 0.00 0.00 0.00 0.00 0.00 0.00 0.00 0.00 0.00 0.00 0.00 0.00 0.00 0.00 0.00 0.00 0.00 0.00 0.00 0.00 0.00 0.00 0.01 0.03 0.03 0.00 0.00 0.00 0.02 0.10 0.11 0.10 0.05 0.02 0.01 0.01 0.03 0.06 0.07 0.07 0.06 0.04 0.01 0.01 0.00
0.00 0.00 0.00 0.00 0.00 0.00 0.00 0.00 0.00 0.00 0.00 0.00 0.00 0.00 0.00 0.00 0.00 0.00 0.00 0.00 0.00 0.00 0.00 0.01 0.04 0.03 0.01 0.01 0.02 0.01 0.00 0.01 0.01 0.02 0.02 0.03 0.03 0.03 0.01 0.01 0.02 0.05 0.07 0.09 0.06 0.03 0.00 0.00 0.00
0.00 0.00 0.00 0.00 0.00 0.00 0.00 0.00 0.00 0.00 0.00 0.00 0.00 0.00 0.00 0.00 0.00 0.00 0.00 0.00 0.00 0.00 0.00 0.00 0.01 0.02 0.01 0.00 0.00 0.00 0.00 0.00 0.00 0.00 0.01 0.01 0.02 0.02 0.01 0.01 0.02 0.03 0.04 0.04 0.03 0.01 0.00 0.00 0.00
0.00 0.00 0.00 0.00 0.00 0.00 0.00 0.00 0.00 0.00 0.00 0.00 0.00 0.00 0.00 0.00 0.00 0.00 0.00 0.00 0.00 0.00 0.00 0.00 0.00 0.00 0.00 0.00 0.00 0.00 0.00 0.00 0.00 0.00 0.00 0.00 0.00 0.01 0.01 0.02 0.03 0.03 0.03 0.02 0.01 0.00 0.00 0.00 0.00
0.00 0.00 0.00 0.00 0.00 0.00 0.00 0.00 0.00 0.00 0.00 0.00 0.00 0.00 0.00 0.00 0.00 0.00 0.00 0.00 0.00 0.00 0.00 0.00 0.00 0.00 0.00 0.00 0.00 0.00 0.00 0.00 0.00 0.00 0.00 0.01 0.01 0.01 0.04 0.04 0.04 0.03 0.01 0.01 0.00 0.00 0.00 0.00 0.00
0.00 0.00 0.00 0.00 0.00 0.00 0.00 0.00 0.00 0.00 0.00 0.00 0.00 0.00 0.00 0.00 0.00 0.00 0.00 0.00 0.00 0.00 0.00 0.00 0.00 0.00 0.00 0.00 0.00 0.00 0.00 0.00 0.00 0.00 0.00 0.00 0.01 0.02 0.05 0.06 0.05 0.03 0.01 0.00 0.00 0.00 0.00 0.00 0.00
0.00 0.00 0.00 0.00 0.00 0.00 0.00 0.00 0.00 0.00 0.00 0.00 0.00 0.00 0.00 0.00 0.00 0.00 0.00 0.00 0.00 0.00 0.00 0.00 0.00 0.00 0.00 0.00 0.00 0.00 0.00 0.00 0.00 0.00 0.00 0.01 0.02 0.03 0.03 0.04 0.04 0.03 0.01 0.00 0.00 0.00 0.00 0.00 0.00
0.00 0.00 0.00 0.00 0.00 0.00 0.00 0.00 0.00 0.00 0.00 0.00 0.00 0.00 0.00 0.00 0.00 0.00 0.00 0.00 0.00 0.00 0.00 0.00 0.00 0.00 0.00 0.00 0.00 0.00 0.00 0.00 0.00 0.00 0.00 0.00 0.01 0.01 0.02 0.02 0.01 0.01 0.00 0.00 0.00 0.00 0.00 0.00 0.00
0.00 0.00 0.00 0.00 0.00 0.00 0.00 0.00 0.00 0.00 0.00 0.00 0.00 0.00 0.00 0.00 0.00 0.00 0.00 0.00 0.00 0.00 0.00 0.00 0.00 0.00 0.00 0.00 0.00 0.00 0.00 0.00 0.00 0.00 0.00 0.00 0.00 0.00 0.00 0.00 0.00 0.00 0.00 0.00 0.00 0.00 0.00 0.00 0.00
MSLP
1010.46 1010.39 1011.25 1011.22 1011.86 1011.19 1009.65 1007.36 1005.77 1004.86 1004.44 1003.99 1003.81 1004.01 1005.07 1005.33 1005.99 1007.81 1007.72 1007.54 1008.41 1009.54 1010.41 1010.81 1011.45 1011.78 1012.20 1012.60 1012.89 1013.26 1013.58 1014.00 1014.59 1015.04 1015.31 1015.73 1016.01 1016.28 1016.64 1017.03 1017.33 1017.62 1017.82 1017.90 1018.15 1018.31 1018.37 1018.33 1018.40
1010.26 1010.12 1010.95 1010.81 1011.23 1010.89 1008.65 1006.47 1005.50 1004.78 1004.20 1003.67 1003.62 1003.87 1004.73 1006.02 1006.01 1007.20 1007.90 1008.80 1008.88 1009.60 1010.35 1010.72 1011.17 1011.79 1012.23 1012.72 1013.10 1013.57 1013.97 1014.16 1014.75 1015.17 1015.49 1015.95 1016.34 1016.55 1016.83 1017.11 1017.40 1017.71 1017.99 1018.17 1018.27 1018.53 1018.80 1018.72 1018.80
1010.29 1010.25 1010.73 1010.72 1010.44 1009.75 1007.76 1005.57 1004.70 1004.21 1003.81 1003.88 1003.82 1003.71 1004.52 1006.21 1006.35 1006.86 1007.43 1008.39 1009.07 1009.84 1010.46 1010.68 1011.13 1011.68 1012.23 1012.81 1013.35 1013.66 1014.15 1014.45 1014.80 1015.39 1015.73 1016.03 1016.39 1016.79 1017.02 1017.25 1017.49 1017.75 1018.10 1018.37 1018.54 1018.81 1019.02 1019.05 1019.03
1010.43 1010.27 1010.40 1010.31 1009.91 1007.93 1006.72 1004.95 1003.90 1003.88 1003.70 1003.94 1003.99 1004.74 1005.50 1006.05 1006.24 1006.82 1007.45 1008.15 1008.86 1009.62 1010.20 1011.00 1011.21 1011.59 1012.20 1012.69 1013.32 1013.80 1014.26 1014.72 1014.95 1015.29 1015.67 1016.11 1016.38 1016.74 1017.05 1017.33 1017.52 1017.72 1018.03 1018.41 1018.66 1018.86 1019.03 1019.10 1019.17
1010.54 1010.74 1010.80 1010.09 1008.76 1007.39 1005.70 1004.25 1003.67 1003.71 1003.89 1004.06 1004.36 1005.34 1006.12 1006.64 1006.61 1006.88 1007.50 1008.33 1008.94 1009.73 1010.29 1011.28 1011.70 1011.82 1012.06 1012.52 1013.09 1013.59 1014.09 1014.63 1014.96 1015.27 1015.57 1016.03 1016.35 1016.68 1017.01 1017.29 1017.45 1017.61 1017.89 1018.29 1018.52 1018.79 1019.09 1019.07 1018.97
1010.76 1010.70 1010.80 1009.97 1008.37 1006.77 1005.22 1003.97 1003.54 1003.64 1003.84 1004.16 1004.71 1005.33 1006.75 1006.83 1006.87 1007.23 1007.39 1008.06 1008.67 1009.70 1010.50 1011.09 1011.77 1012.18 1012.26 1012.42 1012.82 1013.36 1013.97 1014.40 1014.83 1015.09 1015.49 1015.85 1016.32 1016.58 1016.95 1017.24 1017.49 1017.69 1017.87 1018.09 1018.38 1018.53 1018.81 1018.91 1019.03
1010.69 1011.11 1010.49 1009.47 1008.14 1006.55 1004.84 1003.98 1003.90 1003.91 1004.00 1004.46 1004.70 1005.52 1007.02 1007.17 1007.09 1007.17 1007.59 1008.14 1008.91 1009.59 1010.36 1011.01 1011.67 1012.23 1012.58 1012.60 1012.72 1013.25 1013.81 1014.36 1014.92 1015.19 1015.49 1015.89 1016.32 1016.67 1017.01 1017.28 1017.61 1017.86 1018.04 1018.22 1018.35 1018.52 1018.63 1018.81 1018.90
1009.91 1010.58 1010.13 1009.20 1007.85 1006.72 1005.06 1004.35 1004.15 1004.26 1004.53 1004.25 1004.34 1005.37 1006.79 1007.11 1007.08 1007.31 1007.74 1008.48 1009.40 1009.96 1010.50 1011.13 1011.61 1012.15 1012.68 1013.03 1013.12 1013.33 1013.76 1014.40 1014.97 1015.35 1015.58 1015.98 1016.40 1016.78 1017.16 1017.53 1017.85 1018.19 1018.38 1018.56 1018.71 1018.76 1018.83 1018.93 1019.01
1009.28 1010.06 1009.91 1009.13 1007.82 1006.83 1005.37 1004.79 1004.37 1004.18 1004.46 1004.49 1004.58 1004.87 1005.68 1006.24 1006.74 1007.36 1008.02 1008.90 1009.74 1010.41 1010.75 1011.24 1011.62 1012.01 1012.64 1013.12 1013.44 1013.66 1013.95 1014.36 1014.95 1015.41 1015.75 1016.12 1016.50 1016.90 1017.14 1017.54 1017.96 1018.37 1018.69 1018.76 1018.92 1019.08 1019.31 1019.37 1019.35
1009.25 1009.69 1009.38 1008.26 1007.60 1007.08 1006.25 1005.67 1005.22 1005.23 1004.83 1004.66 1004.82 1004.70 1005.56 1005.77 1006.33 1007.00 1007.63 1008.48 1009.30 1010.00 1010.55 1010.93 1011.54 1012.08 1012.48 1012.99 1013.54 1013.88 1014.10 1014.45 1014.98 1015.40 1015.91 1016.12 1016.41 1016.70 1016.95 1017.43 1017.78 1018.11 1018.55 1018.84 1018.97 1019.08 1019.21 1019.38 1019.46
1008.57 1008.74 1008.62 1007.81 1007.31 1006.69 1006.45 1005.82 1005.28 1005.39 1005.16 1005.10 1005.24 1005.29 1005.19 1006.00 1006.02 1006.42 1006.83 1007.15 1007.69 1008.60 1009.56 1010.13 1010.80 1011.43 1011.99 1012.45 1013.38 1013.80 1014.08 1014.41 1014.86 1015.28 1015.69 1016.00 1016.34 1016.74 1017.09 1017.51 1017.78 1018.07 1018.40 1018.80 1019.07 1019.31 1019.41 1019.43 1019.57
1008.59 1008.10 1007.98 1007.34 1006.80 1006.39 1006.45 1006.03 1005.61 1005.49 1005.14 1005.19 1004.86 1004.84 1004.99 1005.23 1005.79 1006.11 1006.35 1006.74 1007.30 1007.88 1008.41 1009.15 1009.81 1010.54 1011.57 1012.16 1012.90 1013.49 1013.90 1014.17 1014.45 1015.01 1015.41 1015.86 1016.27 1016.43 1016.83 1017.14 1017.45 1017.81 1018.17 1018.71 1018.99 1019.24 1019.31 1019.48 1019.40
1008.44 1008.09 1007.62 1006.96 1006.63 1006.55 1006.25 1006.01 1005.93 1005.06 1004.91 1004.70 1004.57 1004.53 1004.53 1004.67 1004.88 1005.04 1005.33 1005.59 1006.50 1007.14 1007.55 1008.23 1009.03 1009.71 1010.34 1011.51 1012.24 1012.87 1013.45 1013.99 1014.37 1014.66 1014.94 1015.20 1015.64 1016.10 1016.40 1016.77 1017.12 1017.50 1017.93 1018.23 1018.70 1018.76 1018.93 1019.22 1019.29
1008.48 1007.91 1007.45 1006.96 1006.50 1006.41 1006.24 1005.84 1005.85 1004.62 1004.29 1004.39 1004.21 1003.99 1003.78 1004.07 1004.23 1004.51 1004.85 1005.18 1005.59 1006.40 1007.19 1007.39 1008.10 1008.93 1009.66 1010.37 1011.27 1012.03 1012.66 1013.22 1013.69 1014.06 1014.32 1014.72 1015.05 1015.37 1015.74 1016.17 1016.63 1016.95 1017.33 1017.48 1017.80 1018.19 1018.55 1018.83 1019.13
1008.99 1008.68 1007.73 1006.89 1006.53 1006.26 1005.55 1005.99 1005.36 1004.10 1003.78 1003.92 1003.90 1003.31 1003.50 1003.77 1003.93 1004.20 1004.24 1004.53 1004.62 1005.49 1006.01 1007.04 1007.60 1008.28 1009.03 1009.48 1010.41 1011.09 1011.54 1012.31 1012.75 1013.19 1013.89 1014.21 1014.49 1014.87 1015.26 1015.75 1016.32 1016.43 1016.72 1017.14 1017.36 1017.95 1018.33 1018.73 1018.89
1009.74 1009.28 1008.49 1006.46 1006.10 1005.19 1005.72 1005.39 1004.18 1003.56 1003.35 1003.44 1003.38 1003.34 1003.32 1003.33 1003.35 1003.44 1003.79 1003.87 1003.82 1004.24 1005.40 1006.27 1007.13 1007.84 1008.62 1009.14 1009.77 1010.46 1011.07 1011.68 1012.46 1012.84 1013.16 1013.69 1014.01 1014.52 1015.05 1015.29 1015.49 1015.71 1016.25 1016.78 1017.28 1017.92 1018.48 1018.82 1019.00
1009.99 1009.20 1008.49 1007.16 1005.29 1005.57 1005.11 1004.96 1004.37 1003.79 1003.86 1003.75 1003.44 1003.39 1003.42 1003.24 1003.15 1003.13 1003.10 1003.02 1003.28 1003.49 1004.67 1005.87 1006.92 1007.67 1008.17 1008.79 1009.37 1010.05 1010.79 1011.55 1012.02 1012.44 1012.93 1013.25 1013.71 1014.06 1014.79 1014.85 1015.02 1015.33 1016.10 1016.81 1017.28 1018.00 1018.38 1018.85 1019.44
1009.42 1009.14 1008.39 1007.37 1005.98 1005.06 1004.93 1004.46 1004.30 1003.87 1003.69 1003.74 1003.62 1003.33 1003.26 1003.19 1002.91 1002.51 1002.60 1002.79 1003.01 1003.44 1004.15 1004.95 1006.16 1007.22 1008.14 1008.93 1009.51 1010.21 1010.97 1011.60 1011.82 1012.13 1012.48 1012.92 1013.18 1013.69 1014.50 1014.60 1014.84 1015.00 1016.07 1016.58 1017.26 1017.86 1018.63 1018.99 1019.53
1009.11 1008.56 1007.74 1006.93 1005.96 1005.55 1005.35 1004.67 1004.69 1004.39 1004.13 1003.83 1003.55 1003.43 1003.04 1002.84 1002.30 1002.38 1002.96 1003.17 1003.05 1003.53 1004.68 1005.54 1006.38 1007.33 1008.05 1008.83 1009.59 1010.43 1011.04 1011.84 1012.36 1012.59 1012.56 1012.64 1012.95 1013.36 1014.01 1014.40 1014.85 1015.40 1015.81 1016.59 1016.87 1017.79 1018.31 1019.05 1019.23
1008.61 1008.14 1007.38 1006.80 1006.27 1005.98 1005.71 1004.91 1004.94 1004.81 1003.98 1003.21 1002.87 1003.09 1003.19 1003.23 1002.84 1003.58 1003.53 1003.87 1004.24 1004.40 1004.67 1005.58 1006.40 1007.10 1007.87 1008.59 1009.43 1010.10 1010.96 1012.10 1012.78 1013.16 1013.33 1013.52 1013.57 1013.74 1014.26 1014.64 1015.28 1015.78 1016.04 1016.62 1017.09 1017.21 1017.96 1018.21 1018.75
1007.44 1007.21 1006.95 1006.65 1006.61 1006.22 1006.09 1004.23 1004.70 1004.12 1003.26 1002.75 1002.35 1002.97 1003.51 1003.69 1004.02 1004.25 1004.41 1004.94 1005.16 1005.66 1005.82 1005.79 1006.23 1007.02 1007.91 1008.76 1009.74 1010.83 1011.54 1012.50 1013.34 1013.75 1013.90 1014.12 1014.39 1014.61 1014.80 1015.09 1015.42 1016.16 1016.39 1016.84 1017.09 1017.44 1017.42 1018.14 1018.79
1006.26 1006.44 1006.43 1006.72 1007.11 1006.86 1006.84 1004.37 1005.03 1004.05 1002.66 1002.55 1003.25 1003.47 1003.68 1004.08 1004.56 1004.95 1005.55 1006.22 1006.62 1007.03 1006.84 1006.60 1006.62 1007.16 1007.87 1008.52 1009.34 1009.96 1010.69 1011.99 1012.71 1013.67 1014.21 1014.40 1014.78 1014.99 1015.18 1015.63 1016.11 1016.51 1017.11 1017.61 1017.73 1018.55 1019.03 1018.49 1018.49
1005.39 1005.99 1006.45 1006.97 1007.25 1007.38 1007.27 1006.93 1004.56 1003.76 1002.73 1001.95 1002.94 1003.51 1003.75 1004.35 1004.98 1005.69 1006.35 1007.01 1007.44 1007.49 1007.75 1007.62 1007.54 1007.79 1008.15 1008.58 1009.01 1009.88 1010.84 1011.41 1012.35 1013.46 1014.32 1014.74 1015.15 1015.16 1015.51 1015.87 1016.45 1016.97 1017.61 1018.04 1017.99 1018.48 1019.58 1019.74 1021.37
1005.51 1006.06 1006.75 1007.38 1007.84 1007.24 1007.33 1007.28 1004.72 1003.68 1003.04 1002.68 1002.77 1003.51 1003.82 1004.75 1005.21 1005.91 1006.33 1006.92 1007.54 1007.86 1008.25 1008.61 1008.52 1008.69 1008.89 1009.05 1009.35 1009.63 1010.42 1011.42 1012.52 1013.51 1014.05 1014.80 1015.09 1015.58 1015.86 1016.09 1016.40 1016.81 1017.26 1017.57 1017.98 1018.50 1019.30 1019.92 1020.01
1005.64 1006.58 1007.87 1008.33 1008.41 1006.80 1006.62 1006.18 1005.02 1003.06 1002.51 1002.29 1002.86 1003.55 1004.17 1004.94 1005.51 1006.03 1006.50 1007.27 1007.87 1008.20 1008.65 1009.03 1009.43 1009.65 1009.64 1009.76 1010.02 1010.55 1010.83 1011.47 1012.33 1013.04 1013.72 1014.54 1015.03 1015.65 1016.03 1016.20 1016.56 1016.59 1017.20 1017.60 1018.01 1019.54 1018.08 1019.66 1020.40
1004.92 1006.16 1007.23 1008.08 1008.24 1007.29 1006.14 1004.92 1002.83 1002.31 1002.47 1002.68 1003.05 1003.77 1004.56 1005.33 1005.76 1006.11 1006.65 1007.37 1008.14 1008.67 1009.12 1009.52 1009.82 1010.12 1010.29 1010.43 1010.79 1011.13 1011.55 1011.87 1012.45 1013.04 1013.75 1014.22 1015.10 1015.73 1016.33 1016.45 1016.87 1018.18 1017.53 1018.85 1018.99 1018.20 1020.30 1021.07 1020.96
1004.05 1004.70 1006.27 1007.57 1007.76 1007.63 1006.35 1004.15 1003.11 1002.43 1002.79 1002.88 1003.27 1004.06 1004.84 1005.28 1005.60 1005.94 1006.53 1007.08 1007.76 1008.24 1008.82 1009.55 1010.31 1010.67 1010.72 1010.88 1011.14 1011.33 1011.78 1012.23 1012.86 1013.66 1014.02 1014.74 1015.13 1015.77 1016.55 1016.62 1017.25 1017.57 1018.66 1017.71 1019.21 1019.36 1019.81 1021.44 1021.35
1002.70 1004.43 1006.04 1007.15 1008.08 1007.72 1006.53 1005.09 1003.67 1003.31 1003.27 1003.40 1003.77 1004.00 1004.33 1004.72 1005.14 1005.57 1006.12 1006.60 1007.14 1007.77 1008.50 1009.06 1009.71 1010.61 1010.94 1011.22 1011.39 1011.63 1011.80 1012.37 1012.84 1013.50 1014.03 1014.74 1015.38 1015.77 1016.92 1016.69 1017.65 1017.87 1018.29 1018.96 1019.36 1019.33 1019.62 1021.58 1021.37
1002.95 1003.76 1004.89 1006.31 1006.89 1007.32 1006.94 1004.95 1002.95 1003.31 1003.52 1003.90 1004.17 1004.31 1004.50 1004.73 1005.15 1004.95 1005.53 1005.90 1006.37 1007.30 1008.36 1009.15 1009.87 1010.52 1011.21 1011.59 1011.84 1012.21 1012.50 1012.86 1013.21 1013.45 1014.21 1014.61 1015.29 1015.57 1016.15 1016.83 1017.60 1017.61 1018.79 1019.09 1019.23 1019.67 1020.51 1021.00 1021.31
1002.04 1003.17 1004.51 1006.05 1006.56 1006.68 1006.48 1005.02 1003.35 1003.33 1003.47 1003.85 1004.32 1004.76 1004.65 1004.90 1005.00 1005.04 1005.08 1005.65 1006.45 1007.15 1007.90 1008.72 1009.52 1010.31 1010.81 1011.42 1011.93 1012.35 1012.67 1013.01 1013.57 1013.84 1014.29 1014.98 1015.59 1015.94 1016.06 1016.79 1017.26 1018.25 1018.71 1018.89 1019.40 1020.03 1020.20 1020.84 1021.41
Thickness
5824 5826 5820 5813 5775 5770 5767 5794 5821 5818 5824 5846 5850 5837 5819 5824 5810 5776 5830 5833 5824 5812 5802 5797 5790 5785 5780 5775 5770 5766 5762 5757 5752 5747 5742 5738 5735 5731 5727 5722 5718 5714 5711 5710 5708 5707 5707 5707 5707
5824 5826 5816 5803 5763 5746 5761 5812 5806 5822 5840 5851 5848 5842 5822 5804 5827 5816 5819 5818 5815 5807 5800 5796 5791 5783 5778 5772 5767 5761 5756 5754 5749 5745 5740 5735 5730 5728 5725 5721 5717 5713 5709 5707 5706 5704 5702 5704 5704
5821 5822 5798 5781 5763 5751 5769 5816 5822 5835 5846 5840 5834 5848 5834 5811 5824 5819 5825 5819 5812 5802 5795 5794 5789 5782 5776 5769 5763 5758 5753 5750 5747 5741 5737 5734 5730 5725 5722 5719 5716 5712 5708 5705 5704 5701 5700 5701 5702
5810 5807 5800 5772 5766 5787 5803 5821 5839 5831 5840 5841 5837 5820 5830 5834 5829 5828 5825 5821 5811 5802 5795 5788 5785 5780 5774 5768 5761 5755 5750 5746 5744 5741 5737 5732 5729 5724 5720 5718 5715 5712 5708 5704 5703 5702 5701 5701 5700
5804 5790 5768 5770 5776 5793 5818 5833 5839 5825 5829 5831 5832 5809 5813 5827 5835 5831 5820 5818 5809 5799 5791 5781 5777 5775 5772 5767 5761 5755 5750 5745 5742 5739 5737 5732 5728 5724 5720 5717 5715 5713 5709 5705 5704 5702 5699 5701 5702
5778 5783 5756 5754 5777 5801 5815 5832 5834 5828 5829 5827 5821 5810 5809 5830 5827 5824 5823 5814 5812 5797 5785 5779 5772 5769 5767 5766 5761 5756 5749 5745 5741 5738 5735 5732 5727 5723 5719 5716 5713 5712 5709 5707 5705 5704 5701 5701 5701
5772 5760 5755 5768 5780 5786 5809 5832 5820 5819 5816 5814 5828 5799 5803 5815 5823 5823 5817 5811 5806 5797 5785 5776 5769 5764 5761 5761 5759 5754 5749 5743 5737 5734 5731 5729 5724 5721 5717 5715 5711 5709 5708 5706 5704 5703 5702 5700 5699
5781 5768 5766 5769 5774 5774 5812 5819 5823 5818 5806 5834 5833 5796 5780 5808 5818 5816 5812 5802 5797 5791 5783 5772 5766 5761 5757 5754 5753 5750 5746 5739 5733 5730 5727 5725 5721 5718 5714 5710 5708 5705 5704 5702 5701 5701 5700 5698 5697
5794 5754 5748 5760 5775 5778 5809 5804 5819 5831 5816 5820 5825 5820 5817 5820 5821 5813 5804 5793 5786 5782 5776 5768 5762 5759 5753 5749 5746 5744 5740 5736 5731 5726 5723 5720 5717 5713 5711 5707 5705 5701 5699 5699 5698 5697 5695 5695 5695
5767 5744 5756 5780 5783 5782 5790 5795 5800 5798 5807 5808 5810 5823 5816 5818 5811 5801 5795 5787 5782 5777 5773 5767 5759 5754 5750 5745 5741 5738 5735 5732 5726 5722 5718 5716 5714 5712 5709 5705 5703 5700 5696 5694 5694 5694 5693 5692 5691
5771 5754 5771 5783 5788 5792 5786 5789 5799 5789 5792 5800 5798 5805 5811 5798 5798 5795 5787 5783 5783 5785 5776 5768 5761 5755 5750 5746 5738 5734 5731 5728 5724 5720 5716 5713 5710 5707 5704 5701 5699 5698 5694 5692 5689 5687 5687 5687 5686
5757 5774 5774 5785 5792 5789 5780 5791 5792 5796 5798 5804 5807 5811 5811 5807 5800 5793 5788 5781 5774 5777 5781 5772 5765 5759 5749 5744 5737 5732 5729 5726 5723 5718 5714 5709 5708 5706 5704 5700 5698 5696 5693 5689 5686 5684 5683 5681 5682
5758 5768 5776 5785 5788 5785 5787 5781 5781 5794 5803 5807 5808 5809 5806 5805 5805 5806 5801 5794 5777 5773 5781 5776 5768 5761 5755 5746 5738 5733 5728 5723 5719 5716 5713 5711 5708 5705 5702 5699 5694 5691 5689 5687 5682 5682 5680 5677 5677
5760 5763 5769 5779 5781 5780 5773 5776 5776 5798 5803 5799 5800 5803 5806 5804 5804 5802 5798 5791 5784 5775 5778 5780 5771 5765 5758 5751 5745 5736 5731 5725 5721 5717 5714 5709 5706 5704 5703 5699 5695 5691 5687 5688 5685 5682 5678 5675 5671
5752 5742 5756 5770 5772 5768 5780 5754 5767 5794 5799 5793 5792 5802 5802 5799 5799 5792 5793 5791 5790 5779 5781 5778 5774 5766 5759 5753 5748 5742 5736 5728 5724 5718 5714 5708 5705 5703 5700 5696 5692 5691 5687 5683 5681 5677 5673 5670 5668
5730 5732 5720 5766 5768 5780 5764 5739 5775 5791 5790 5790 5795 5798 5796 5795 5797 5795 5793 5791 5793 5787 5778 5776 5774 5765 5757 5752 5746 5743 5736 5730 5722 5717 5713 5710 5704 5698 5693 5693 5692 5690 5684 5681 5677 5670 5663 5660 5658
5716 5703 5716 5735 5773 5762 5762 5746 5771 5781 5774 5769 5780 5785 5784 5786 5789 5791 5794 5795 5792 5790 5781 5772 5766 5761 5755 5749 5744 5739 5733 5727 5721 5716 5711 5707 5700 5694 5689 5689 5687 5686 5679 5672 5670 5661 5655 5651 5645
5702 5699 5709 5717 5749 5758 5746 5748 5761 5772 5768 5765 5767 5772 5777 5780 5783 5790 5792 5793 5792 5786 5781 5775 5767 5758 5750 5742 5737 5730 5724 5719 5716 5713 5710 5703 5699 5691 5685 5685 5683 5681 5673 5667 5661 5654 5646 5641 5635
5711 5709 5710 5724 5743 5736 5730 5737 5743 5753 5756 5759 5764 5766 5768 5774 5786 5788 5786 5784 5785 5782 5772 5765 5758 5751 5745 5736 5729 5722 5716 5711 5706 5704 5701 5698 5694 5690 5683 5680 5674 5671 5666 5658 5654 5646 5640 5631 5628
5704 5700 5705 5721 5735 5732 5718 5725 5734 5740 5751 5759 5760 5758 5759 5763 5771 5770 5775 5773 5771 5770 5769 5762 5755 5747 5740 5734 5725 5720 5713 5702 5696 5693 5690 5687 5684 5681 5675 5672 5665 5659 5656 5649 5643 5642 5635 5631 5623
5704 5700 5702 5702 5713 5717 5705 5717 5717 5740 5748 5753 5758 5753 5751 5755 5756 5760 5763 5759 5758 5754 5752 5755 5751 5744 5734 5726 5715 5706 5700 5691 5683 5680 5677 5674 5672 5668 5664 5660 5656 5648 5645 5639 5635 5632 5631 5621 5610
5690 5712 5709 5698 5687 5673 5698 5677 5704 5725 5735 5741 5731 5740 5742 5747 5748 5751 5747 5741 5737 5735 5739 5743 5743 5737 5730 5723 5713 5710 5703 5692 5684 5673 5667 5664 5659 5657 5654 5647 5641 5635 5628 5622 5620 5610 5605 5598 5597
5698 5705 5693 5688 5681 5669 5672 5655 5698 5717 5722 5739 5726 5735 5738 5738 5737 5734 5731 5727 5725 5725 5723 5726 5727 5724 5720 5716 5711 5703 5694 5688 5678 5666 5658 5653 5648 5646 5641 5637 5629 5622 5614 5608 5607 5600 5590 5587 5564
5700 5690 5682 5678 5666 5649 5661 5657 5672 5693 5710 5720 5727 5732 5731 5727 5728 5725 5726 5722 5717 5715 5711 5709 5710 5709 5707 5705 5701 5698 5689 5678 5668 5658 5652 5643 5639 5632 5627 5623 5618 5613 5606 5601 5594 5587 5578 5571 5564
5682 5668 5635 5630 5629 5650 5678 5660 5672 5707 5715 5721 5717 5715 5717 5718 5716 5716 5717 5713 5708 5706 5701 5698 5693 5691 5690 5690 5687 5680 5676 5667 5657 5650 5643 5634 5629 5622 5615 5611 5605 5603 5595 5590 5582 5566 5573 5557 5545
5668 5656 5628 5615 5619 5645 5676 5654 5686 5712 5713 5715 5717 5710 5705 5701 5704 5708 5709 5702 5696 5693 5690 5686 5682 5678 5675 5672 5668 5663 5657 5653 5646 5639 5631 5625 5615 5608 5600 5597 5590 5576 5580 5565 5561 5558 5535 5532 5524
5666 5652 5665 5641 5649 5635 5648 5676 5696 5701 5699 5703 5700 5694 5692 5692 5694 5697 5697 5692 5690 5687 5683 5676 5669 5663 5660 5656 5652 5648 5641 5634 5627 5618 5614 5606 5601 5593 5584 5580 5574 5569 5560 5562 5539 5538 5531 5513 5514
5671 5669 5632 5628 5613 5609 5638 5649 5660 5675 5681 5685 5682 5686 5689 5690 5689 5687 5685 5685 5684 5679 5671 5665 5658 5649 5643 5636 5634 5630 5626 5619 5612 5605 5598 5590 5582 5577 5567 5568 5558 5554 5549 5535 5533 5530 5524 5504 5507
5652 5647 5645 5637 5626 5605 5609 5629 5682 5675 5675 5670 5673 5677 5677 5681 5679 5681 5678 5678 5678 5671 5660 5650 5640 5632 5624 5618 5614 5609 5604 5599 5594 5590 5581 5576 5568 5565 5559 5552 5545 5544 5533 5528 5524 5519 5509 5506 5501
5657 5646 5638 5609 5621 5622 5619 5628 5676 5672 5673 5667 5659 5658 5662 5661 5662 5665 5665 5661 5656 5652 5647 5637 5628 5618 5613 5605 5598 5592 5587 5582 5575 5571 5566 5558 5552 5548 5546 5539 5534 5525 5520 5518 5512 5507 5505 5498 5491